Flag for U.S.A. Weather past 2 weeks in Montpelier, Vermont, U.S.A.

Now
49 °F

Passing clouds.


Feels Like: 49 °F
Forecast: 39 / 65 °F
Wind: No wind

Location: Knapp State Airport

Current Time: Sep 16, 2014 at 9:37:02 PM

Latest Report: Sep 16, 2014 at 8:51 PM


Visibility: 10 mi

Pressure: 30.03 "Hg

Humidity: 90%

Dew point: 46 °F

Location of MontpelierLocation

Historic Weather in Montpelier — Graph

°F

Montpelier temperature yesterday

Maximum temperature yesterday: 59 °F (at 3:51 PM)
Minimum temperature yesterday: 34 °F (at 1:59 AM)
Average temperature yesterday: 46 °F

Past Weeks' High & Low Weather Summary

 TemperatureHumidityPressure
High84 °F (Sep 2, 2:51 PM)100% (Sep 2, 5:01 AM)30.45 "Hg (Sep 2, 5:01 AM)
Low34 °F (Sep 15, 1:59 AM)43% (Sep 8, 1:51 PM)29.74 "Hg (Sep 11, 3:51 PM)
Average58 °F80%30.13 "Hg
* Reported Sep 1 7:51 PM — Sep 16 7:51 PM, Montpelier, Weather by CustomWeather, © 2014

Note: Actual official high and low records may vary slightly from our data, if they occured in-between our weather recording intervals... More about our weather records

Advertising

Montpelier weather history for previous 24 hours

 ConditionsComfort  
Time TempWeatherWind HumidityBarometerVisibility
7:51 PM
Sep 16
50 °FPartly sunny.No wind93%30.02 "Hg10 mi
6:51 PM53 °FOvercast.No wind93%30.00 "Hg10 mi
5:51 PM59 °FMore clouds than sun.No wind69%29.99 "Hg10 mi
4:51 PM60 °FPassing clouds.5 mph65%29.98 "Hg10 mi
3:51 PM60 °FBroken clouds.No wind69%29.99 "Hg10 mi
2:51 PM55 °FBroken clouds.No wind83%30.01 "Hg10 mi
1:51 PM54 °FLight rain. Mostly cloudy.5 mph86%30.02 "Hg10 mi
12:51 PM56 °FMostly cloudy.3 mph81%30.01 "Hg10 mi
11:51 AM54 °FOvercast.7 mph86%30.03 "Hg10 mi
10:51 AM53 °FCloudy.5 mph89%30.04 "Hg10 mi
9:51 AM51 °FLow clouds.3 mph92%30.05 "Hg10 mi
8:51 AM50 °FLight rain. Mostly cloudy.No wind93%30.05 "Hg10 mi
7:51 AM49 °FLight rain. Overcast.No wind93%30.06 "Hg10 mi
6:51 AM49 °FLight rain. Mostly cloudy.6 mph93%30.08 "Hg10 mi
5:51 AM48 °FLight rain. Mostly cloudy.No wind96%30.07 "Hg8 mi
4:51 AM48 °FLight rain. Mostly cloudy.No wind96%30.06 "Hg10 mi
3:51 AM48 °FLight rain. Overcast.No wind96%30.06 "Hg8 mi
2:51 AM49 °FMostly cloudy.No wind93%30.07 "Hg10 mi
1:51 AM49 °FMostly cloudy.3 mph90%30.08 "Hg10 mi
12:51 AM50 °FOvercast.3 mph86%30.11 "Hg10 mi
11:51 PM
Sep 15
50 °FLight rain. Overcast.No wind89%30.13 "Hg10 mi
10:51 PM48 °FPassing clouds.No wind93%30.14 "Hg10 mi
9:51 PM50 °FOvercast.No wind86%30.14 "Hg10 mi
Weather by CustomWeather, © 2014

See weather overviewHow to use our weather pages